Location: Newton_East
(35.6670°N, 81.2000°W)
Time: 10:05:51
(UTC-05:00)

ISS - Visible Passes

Search period start: 23 November 2017 00:00
Search period end: 03 December 2017 00:00
Orbit: 402 x 407 km, 51.6° (Epoch: 24 November)

Date Brightness Start Highest point End Pass type
(mag) Time Alt. Az. Time Alt. Az. Time Alt. Az.
24 Nov -2.2 18:40:41 10° S 18:42:41 22° SSE 18:42:41 22° SSE visible
25 Nov -1.5 17:50:05 10° SSE 17:51:15 11° SE 17:52:26 10° ESE visible
25 Nov -1.4 19:24:08 10° WSW 19:25:37 24° WSW 19:25:37 24° WSW visible
26 Nov -3.9 18:31:47 10° SW 18:35:02 69° SE 18:35:47 47° ENE visible
27 Nov -2.7 17:39:51 10° SSW 17:42:47 30° SE 17:45:42 10° ENE visible
27 Nov -1.5 19:16:33 10° W 19:18:31 22° NW 19:18:31 22° NW visible
28 Nov -2.9 18:23:39 10° WSW 18:26:47 42° NW 18:28:30 22° NNE visible
29 Nov -1.1 19:09:39 10° NW 19:11:02 13° NNW 19:11:02 13° NNW visible
30 Nov -1.7 18:16:08 10° W 18:18:39 20° NNW 18:20:52 11° NNE visible
02 Dec -1.2 18:09:30 10° NW 18:10:37 11° NNW 18:11:45 10° N visible
